Content
SEND FEEDBACK

Daily
Averages
Monthly
Summary
United States of America

NEVADA CITY, CALIFORNIA


Home > North America > United States > California
Elevation: 2934 feet     Latitude: 39 18N     Longitude: 121 00W

WEATHER
 
SELECT A DAY
Number of Records: 62,444;   Date Range: 9/21/11 - 9/15/14
 
SHARE

PRINT THIS DATA

[ ← Previous Day ]
WEATHER ALMANAC - JANUARY 21, 2013
[ Next Day → ]
[ °C ]   °F
Weather ElementAverageHighLow
Temperature54.4 °F62.6 °F (1:15 pm)46.4 °F (12:35 am)
Dewpoint17.2 °F26.6 °F (1:15 pm)3.2 °F (4:15 am)
Humidity23.7 %34 % (1:15 am)14 % (4:15 am)
Barometer30.18 in30.21 in (1:55 am)30.16 in (7:15 am)
Wind Speed1.2 mph6.9 mph (3:15 am)
Weather ElementAverage
Visibility10 mi
Wind DirectionNNE (38.1 °)

Weather ElementTotal
Precipitation---
Heating Degree Days10.5 (Base 65)
Growing Degree Days4.5 (Base 50)
Averaged from 67 records on January 21, 2013
WEATHER CONDITIONS BREAKOUT
WIND DIRECTION BREAKOUT
WEATHER BY HOUR - JANUARY 21, 2013
[ °C ]   °F
Local TimeTemperatureDewpointHumidityBarometerVisibilityWind DirectionWind SpeedGust SpeedPrecipitationEventsConditions
12:35 AM46.4 °F17.6 °F32 %30.19 in10.0 miCalmClear
12:55 AM48.2 °F19.4 °F32 %30.20 in10.0 miCalmClear
1:15 AM46.4 °F19.4 °F34 %30.20 in10.0 miCalmClear
1:55 AM50.0 °F14.0 °F24 %30.21 in10.0 miCalmClear
2:15 AM50.0 °F14.0 °F24 %30.21 in10.0 miCalmClear
2:35 AM50.0 °F17.6 °F28 %30.20 in10.0 miCalmClear
2:55 AM50.0 °F14.0 °F24 %30.20 in10.0 miEast (100°)4.6 mphClear
3:15 AM48.2 °F15.8 °F27 %30.19 in10.0 miEast (90°)6.9 mphClear
3:35 AM50.0 °F10.4 °F20 %30.18 in10.0 miCalmClear
3:55 AM50.0 °F8.6 °F19 %30.18 in10.0 miCalmClear
4:15 AM51.8 °F3.2 °F14 %30.18 in10.0 miCalmClear
4:55 AM51.8 °F5.0 °F15 %30.17 in10.0 miCalmClear
5:15 AM48.2 °F6.8 °F19 %30.17 in10.0 miCalmClear
5:35 AM50.0 °F3.2 °F15 %30.17 in10.0 miCalmClear
5:55 AM48.2 °F5.0 °F17 %30.17 in10.0 miCalmClear
6:15 AM50.0 °F3.2 °F15 %30.17 in10.0 miCalmClear
6:35 AM48.2 °F6.8 °F19 %30.17 in10.0 miCalmClear
6:55 AM50.0 °F5.0 °F16 %30.17 in10.0 miCalmClear
7:15 AM48.2 °F14.0 °F25 %30.16 in10.0 miCalmClear
7:35 AM50.0 °F15.8 °F26 %30.16 in10.0 miCalmClear
7:55 AM50.0 °F15.8 °F26 %30.16 in10.0 miCalmClear
8:15 AM53.6 °F14.0 °F21 %30.16 in10.0 miCalmClear
8:35 AM53.6 °F14.0 °F21 %30.17 in10.0 miCalmClear
8:55 AM55.4 °F19.4 °F25 %30.18 in10.0 miCalmClear
9:15 AM57.2 °F15.8 °F20 %30.18 in10.0 miCalmClear
9:35 AM57.2 °F12.2 °F17 %30.19 in10.0 miWest (280°)4.6 mphClear
9:55 AM55.4 °F15.8 °F21 %30.19 in10.0 miCalmClear
10:15 AM57.2 °F14.0 °F18 %30.19 in10.0 miCalmClear
10:35 AM57.2 °F15.8 °F20 %30.19 in10.0 miCalmClear
10:55 AM59.0 °F14.0 °F17 %30.20 in10.0 miCalmClear
11:15 AM59.0 °F15.8 °F19 %30.19 in10.0 miCalmClear
11:35 AM59.0 °F19.4 °F22 %30.19 in10.0 miWest (280°)3.5 mphClear
11:55 AM59.0 °F21.2 °F23 %30.18 in10.0 miWNW (290°)3.5 mphClear
12:15 PM59.0 °F23.0 °F25 %30.18 in10.0 miCalmClear
12:55 PM60.8 °F23.0 °F23 %30.16 in10.0 miWest (270°)3.5 mphClear
1:15 PM62.6 °F26.6 °F26 %30.16 in10.0 miCalmClear
1:35 PM60.8 °F24.8 °F25 %30.17 in10.0 miCalmClear
1:55 PM60.8 °F24.8 °F25 %30.17 in10.0 miSW (220°)5.8 mphClear
2:15 PM60.8 °F24.8 °F25 %30.17 in10.0 miCalmClear
2:35 PM60.8 °F24.8 °F25 %30.18 in10.0 miCalmClear
2:55 PM59.0 °F23.0 °F25 %30.18 in10.0 miCalmClear
3:15 PM60.8 °F24.8 °F25 %30.18 in10.0 miCalmClear
3:35 PM60.8 °F24.8 °F25 %30.17 in10.0 miCalmClear
3:55 PM59.0 °F23.0 °F25 %30.17 in10.0 miCalmClear
4:15 PM59.0 °F24.8 °F27 %30.17 in10.0 miSouth (170°)3.5 mphClear
4:35 PM59.0 °F23.0 °F25 %30.18 in10.0 miCalmClear
4:55 PM57.2 °F24.8 °F29 %30.18 in10.0 miCalmClear
5:15 PM55.4 °F24.8 °F31 %30.18 in10.0 miCalmClear
5:35 PM55.4 °F26.6 °F33 %30.18 in10.0 miCalmClear
5:55 PM55.4 °F26.6 °F33 %30.18 in10.0 miEast (90°)6.9 mphClear
6:35 PM55.4 °F26.6 °F33 %30.17 in10.0 miESE (110°)5.8 mphClear
6:55 PM57.2 °F26.6 °F31 %30.16 in10.0 miESE (120°)5.8 mphClear
7:15 PM57.2 °F24.8 °F29 %30.16 in10.0 miESE (120°)4.6 mphClear
7:35 PM55.4 °F23.0 °F29 %30.16 in10.0 miESE (110°)4.6 mphClear
7:55 PM57.2 °F19.4 °F23 %30.16 in10.0 miEast (100°)5.8 mphClear
8:15 PM57.2 °F17.6 °F21 %30.16 in10.0 miEast (100°)6.9 mphClear
8:35 PM57.2 °F14.0 °F18 %30.16 in10.0 miEast (100°)4.6 mphClear
8:55 PM55.4 °F15.8 °F21 %30.17 in10.0 miCalmClear
9:15 PM55.4 °F14.0 °F20 %30.17 in10.0 miCalmClear
9:35 PM53.6 °F14.0 °F21 %30.17 in10.0 miCalmClear
9:55 PM53.6 °F14.0 °F21 %30.17 in10.0 miCalmClear
10:15 PM51.8 °F14.0 °F22 %30.18 in10.0 miCalmClear
10:35 PM51.8 °F15.8 °F24 %30.19 in10.0 miCalmClear
10:55 PM50.0 °F15.8 °F26 %30.19 in10.0 miCalmClear
11:15 PM50.0 °F17.6 °F28 %30.19 in10.0 miCalmClear
11:35 PM50.0 °F17.6 °F28 %30.19 in10.0 miCalmClear
11:55 PM50.0 °F17.6 °F28 %30.19 in10.0 miCalmClear
Hourly data recorded from KGOO, located miles away from Nevada City, California







STORIES FROM OUR PARTNERS